This is the latest recevied weather packets stored in our database for station/object KI4NG. If no packets are shown the sender has not sent any weather packets the latest 1 day(s).
| Time | Temp. | Humidity | Pressure | Rain* | Wind** | Luminosity | Snow |
|---|---|---|---|---|---|---|---|
| 1777996217 | 19.44° C | 67% | 1015.4 hPa | 0 mm | 0.89 m/s, 200° | 416 W/m² | - |
| 1777995913 | 18.89° C | 66% | 1015.5 hPa | 0 mm | 1.79 m/s, 216° | 447 W/m² | - |
| 1777995609 | 18.89° C | 66% | 1015.5 hPa | 0 mm | 0.45 m/s, 154° | 330 W/m² | - |
| 1777995307 | 18.89° C | 67% | 1015.5 hPa | 0 mm | 1.34 m/s, 154° | 292 W/m² | - |
| 1777995004 | 18.89° C | 66% | 1015.5 hPa | 0 mm | 2.24 m/s, 219° | 291 W/m² | - |
| 1777994701 | 18.89° C | 66% | 1015.3 hPa | 0 mm | 2.24 m/s, 195° | 266 W/m² | - |
| 1777994396 | 18.89° C | 65% | 1015.2 hPa | 0 mm | 0.89 m/s, 169° | 267 W/m² | - |
| 1777994091 | 18.89° C | 67% | 1015.3 hPa | 0 mm | 1.34 m/s, 174° | 254 W/m² | - |
| 1777993789 | 18.89° C | 65% | 1015.3 hPa | 0 mm | 2.24 m/s, 251° | 275 W/m² | - |
| 1777993486 | 18.89° C | 64% | 1015.2 hPa | 0 mm | 1.34 m/s, 199° | 283 W/m² | - |
| 1777993185 | 18.89° C | 64% | 1015.1 hPa | 0 mm | 4.02 m/s, 125° | 303 W/m² | - |
| 1777992883 | 18.89° C | 64% | 1015 hPa | 0 mm | 1.34 m/s, 158° | 336 W/m² | - |
| 1777992582 | 18.89° C | 67% | 1015 hPa | 0 mm | 0.45 m/s, 184° | 305 W/m² | - |
| 1777992279 | 18.33° C | 64% | 1015.2 hPa | 0 mm | 1.79 m/s, 222° | 273 W/m² | - |
| 1777991976 | 18.33° C | 64% | 1015.1 hPa | 0 mm | 2.24 m/s, 234° | 267 W/m² | - |
| 1777991674 | 18.89° C | 64% | 1015 hPa | 0 mm | 0.89 m/s, 187° | 289 W/m² | - |
| 1777991371 | 18.89° C | 64% | 1015 hPa | 0 mm | 2.24 m/s, 187° | 340 W/m² | - |
| 1777991068 | 18.33° C | 68% | 1015 hPa | 0 mm | 0.89 m/s, 166° | 333 W/m² | - |
| 1777990765 | 18.33° C | 65% | 1014.8 hPa | 0 mm | 1.34 m/s, 192° | 304 W/m² | - |
| 1777990462 | 17.78° C | 65% | 1014.9 hPa | 0 mm | 0.89 m/s, 185° | 252 W/m² | - |
| 1777990159 | 17.78° C | 65% | 1014.7 hPa | 0 mm | 1.79 m/s, 195° | 216 W/m² | - |
| 1777989856 | 17.78° C | 66% | 1015 hPa | 0 mm | 1.34 m/s, 196° | 175 W/m² | - |
| 1777989553 | 17.78° C | 66% | 1015 hPa | 0 mm | 1.79 m/s, 195° | 200 W/m² | - |
| 1777989249 | 17.78° C | 65% | 1014.7 hPa | 0 mm | 2.24 m/s, 154° | 224 W/m² | - |
| 1777988945 | 17.78° C | 68% | 1014.8 hPa | 0 mm | 0.89 m/s, 165° | 205 W/m² | - |
* Rain latest hour (hover to see other rain measurements)
** Current wind speed in m/s (hover to see current wind gust speed)